EDT,Max TemperatureF,Mean TemperatureF,Min TemperatureF,Max Dew PointF,MeanDew PointF,Min DewpointF,Max Humidity, Mean Humidity, Min Humidity, Max Sea Level PressureIn, Mean Sea Level PressureIn, Min Sea Level PressureIn, Max VisibilityMiles, Mean VisibilityMiles, Min VisibilityMiles, Max Wind SpeedMPH, Mean Wind SpeedMPH, Max Gust SpeedMPH,PrecipitationIn, CloudCover, Events, WindDirDegrees
2012-8-1,93,88,83,76,74,72,74,65,56,30.04,30.00,29.97,10,10,10,12,3,17,0.00,3,,130
2012-8-2,92,87,82,76,74,72,79,68,56,30.00,29.97,29.94,10,10,10,13,3,17,0.00,2,Thunderstorm,108
2012-8-3,93,86,79,78,74,71,74,67,59,29.99,29.96,29.92,10,9,2,20,5,29,0.08,2,Rain-Thunderstorm,71
2012-8-4,92,86,80,76,74,72,79,69,59,30.04,30.00,29.94,10,10,10,10,4,16,0.00,2,Thunderstorm,109
2012-8-5,93,88,83,77,74,72,80,70,60,30.06,30.03,29.99,10,10,10,14,8,22,0.00,1,,106
2012-8-6,88,83,77,77,75,73,79,72,65,30.06,30.02,29.97,10,9,1,21,8,35,0.16,3,Rain,117
2012-8-7,92,88,83,76,74,73,74,65,56,30.03,29.99,29.95,10,10,9,13,9,20,0.00,2,,110
2012-8-8,92,88,84,76,75,73,74,67,60,30.04,30.00,29.95,10,10,10,14,8,18,0.00,1,,94
2012-8-9,93,85,77,76,74,71,79,70,60,30.01,29.97,29.92,10,9,1,18,7,30,0.62,3,Rain-Thunderstorm,107
2012-8-10,91,84,76,75,73,68,79,69,59,30.01,29.96,29.92,10,9,1,12,6,18,0.18,2,Rain-Thunderstorm,117
2012-8-11,90,83,76,76,74,72,85,75,64,30.07,29.99,29.95,10,10,10,10,5,17,0.01,2,Rain,185
2012-8-12,91,86,80,76,74,72,79,69,59,30.08,30.03,29.98,10,10,10,7,3,9,0.00,1,,113
2012-8-13,92,87,82,76,75,74,79,69,59,30.07,30.04,30.00,10,10,10,10,5,15,0.00,2,,92
2012-8-14,93,87,81,76,75,73,74,67,59,30.06,30.02,29.96,10,10,5,10,6,18,0.03,1,Rain,104
2012-8-15,93,89,84,76,74,71,74,65,56,30.06,30.01,29.97,10,10,10,13,5,21,0.00,0,,145
2012-8-16,93,89,84,76,74,73,74,67,59,30.09,30.05,30.00,10,10,10,9,4,14,0.00,1,,135
2012-8-17,94,89,84,76,74,72,70,63,56,30.05,30.02,29.99,10,10,10,8,4,14,0.00,1,,140
2012-8-18,94,89,84,76,73,71,70,61,52,30.02,29.98,29.95,10,10,10,9,5,15,0.00,1,,165
2012-8-19,94,89,83,75,73,71,70,63,56,30.03,30.00,29.96,10,10,10,9,4,13,0.00,0,,160
2012-8-20,95,88,81,76,74,73,79,68,56,30.04,30.00,29.94,10,10,10,10,3,15,0.00,0,,178
2012-8-21,93,87,81,75,73,70,74,63,52,30.09,30.04,30.00,10,10,9,23,5,41,T,1,Rain,156
2012-8-22,93,85,77,76,74,72,85,73,60,30.10,30.06,30.02,10,9,2,14,6,24,0.07,2,Rain-Thunderstorm,112
2012-8-23,93,88,83,77,74,71,74,63,52,30.07,30.03,29.99,10,10,7,14,9,21,T,2,,72
2012-8-24,88,82,75,76,72,68,79,70,61,30.01,29.96,29.89,10,8,0,25,13,39,0.84,3,Fog-Rain-Thunderstorm,64
2012-8-25,83,78,73,79,73,68,94,80,65,29.97,29.89,29.83,10,7,2,30,15,38,0.76,4,Rain,46
2012-8-26,84,81,77,79,78,75,100,94,88,29.81,29.60,29.53,10,5,0,35,20,46,1.85,7,Rain-Thunderstorm,86
2012-8-27,86,83,80,81,79,76,94,84,74,29.94,29.76,29.65,10,8,2,28,18,43,0.21,5,Rain,163
2012-8-28,90,84,78,79,77,75,91,81,70,30.00,29.96,29.92,10,9,2,17,10,26,0.06,2,Rain,164
2012-8-29,90,86,82,78,76,72,88,76,64,30.01,29.96,29.93,10,10,10,13,7,20,0.00,1,,138
2012-8-30,90,86,82,79,77,76,88,78,68,30.10,30.01,29.96,10,10,10,12,7,18,0.00,2,,123
2012-8-31,90,86,81,79,76,72,88,74,59,30.14,30.09,30.06,10,10,2,13,7,16,0.07,2,Rain,93